Regional Weather Roundup
Issued by NWS

Home | Current Version | Previous Version | Text Only | Print | Product List | Glossary Off
Versions: 1 2 3 4 5 6 7 8 9 10 11 12 13 14 15 16 17 18 19 20 21 22 23 24 25 26 27 28 29 30 31 32 33 34 35 36 37 38 39 40 41 42 43 44 45 46 47 48 49 50

000
ASUS43 KDTX 201110
RWRMI
MICHIGAN HOURLY REGIONAL WEATHER ROUNDUP
NATIONAL WEATHER SERVICE DETROIT/PONTIAC MI
700 AM EDT SAT SEP 20 2014

NOTE: "FAIR" INDICATES FEW OR NO CLOUDS BELOW 12,000 FEET WITH NO
SIGNIFICANT WEATHER AND/OR OBSTRUCTION TO VISIBILITY.

MIZ047>049-052>055-059>063-066>070-074>076-081>083-201200-
SOUTHEAST LOWER MICHIGAN

CITY           SKY/WX    TMP DP  RH WIND       PRES   REMARKS
ADRIAN         PTCLDY    51  46  83 W5        30.03R
ALMA           MOCLDY    55  50  82 S8        29.89F
ANN ARBOR      PTCLDY    45  42  89 S3        30.01R
BAD AXE        CLOUDY    57  51  80 SW13      29.91F
DETROIT CITY   PTCLDY    59  48  67 SW9       30.00R
DETROIT        PTCLDY    51  47  86 S7        30.02R
FLINT          TSTM      60  52  74 S16       29.95S
GROSSE ILE     CLEAR     57  48  72 SW6       30.00S
HILLSDALE      PTCLDY    57  52  82 S5        30.00S
HOWELL         MOCLDY    57  49  74 S7        29.96F

CITY           SKY/WX    TMP DP  RH WIND       PRES   REMARKS
JACKSON        PTCLDY    58  50  75 S8        29.98S
LAMBERTVILLE   CLEAR     55  48  76 SW5       30.02S
LANSING        MOCLDY    58  51  78 SW13      29.94F THUNDER
LAPEER         NOT AVBL
MASON          PTCLDY    56  49  77 SW3       29.96F
MONROE         CLEAR     55  48  76 SW5       30.01R
MT. CLEMENS    CLOUDY    57  54  91 SW9       29.97F
PONTIAC        MOCLDY    59  47  64 SW7       29.98S
PORT HOPE        N/A     60  48  64 SW8       29.87F
PORT HURON     MOCLDY    54  54 100 S5        29.98F
TRI CITIES     MOCLDY    61  49  64 S12       29.90F
YPSILANTI      PTCLDY    53  46  77 SW7       30.02R
$$
MIZ043>046-050>051-056>058-064>065-071>073-077>080-201200-
SOUTHWEST LOWER MICHIGAN

CITY           SKY/WX    TMP DP  RH WIND       PRES   REMARKS
BATTLE CREEK   MOCLDY    57  49  74 SW12      29.97F
BENTON HARBOR  MOCLDY    60  51  72 S10       29.93F
BIG RAPIDS     CLOUDY    62  56  81 SW12G21   29.84F
COLDWATER      MOCLDY    58  52  78 SW6       29.99S
HOLLAND        CLOUDY    67  56  67 SW20G26   29.91F
GRAND RAPIDS   CLOUDY    63  52  67 SW14      29.91F
KALAMAZOO      MOCLDY    57  50  77 S10       29.97F
MARSHALL       MOCLDY    56  49  78 SW7       29.96F
MUSKEGON       CLOUDY    66  56  70 S18G28    29.87F
$$
MIZ016>042-201200-
NORTHERN LOWER MICHIGAN

CITY           SKY/WX    TMP DP  RH WIND       PRES   REMARKS
ALPENA         CLOUDY    61  49  64 SW8       29.78F
BEAVER ISLAND  RAIN      61  60  96 SW18G30   29.71F
BELLAIRE       RAIN      60  57  89 S5        29.78R
CADILLAC       LGT RAIN  58  55  89 SW15      29.81S
CHARLEVOIX     RAIN      62  60  92 SW10G16   29.78F
FRANKFORT      LGT RAIN  62  57  83 S9G16     29.77S
GAYLORD        TSTM      58  52  80 SW10      29.81R
GRAYLING       CLOUDY    60  50  69 SW5       29.82S
HARBOR SPRINGS HVY RAIN  61  57  89 SW12G17   29.76S
HOUGHTON LAKE  CLOUDY    58  50  75 S10       29.82F
MANISTEE       CLOUDY    63  55  77 SW8G17    29.79F
OSCODA         CLOUDY    59  49  69 SW15G23   29.82F
PELLSTON       TSTM      60  57  89 SW10G17   29.73S FOG
TRAVERSE CITY  TSTM      62  58  86 VRB7      29.76R
$$
MIZ007>008-015-201200-
EASTERN UPPER MICHIGAN

CITY           SKY/WX    TMP DP  RH WIND       PRES   REMARKS
KINROSS        CLOUDY    63  57  82 SW9G20    29.71R
MACKINAC ISLAN LGT RAIN  62  55  77 SW16G25   29.72S
NEWBERRY       CLOUDY    59  54  82 SW21G26   29.67F
S. S. MARIE    CLOUDY    57  54  89 E5        29.70S
$$
MIZ004>006-011>014-085-201200-
CENTRAL UPPER MICHIGAN

CITY           SKY/WX    TMP DP  RH WIND       PRES   REMARKS
MANISTIQUE     CLOUDY    58  56  91 SW10G18   29.68S
ESCANABA       CLOUDY    59  55  88 SW7       29.66S
MENOMINEE      CLOUDY    63  59  88 SW9       29.68F
SAWYER-GWINN   CLOUDY    59  55  88 S10       29.64R
$$
MIZ001>003-009>011-084-201200-
WESTERN UPPER MICHIGAN

CITY           SKY/WX    TMP DP  RH WIND       PRES   REMARKS
IRON MOUNTAIN  CLOUDY    66  60  81 SW7       29.63F
HOUGHTON       CLOUDY    61  58  90 S5        29.56S
COPPER HARBOR    N/A     62  58  86 SW3       29.54F
IRONWOOD       PTCLDY    66  64  94 SW8       29.57S
$$

ABBREVIATIONS USED IN REMARKS
   TC - TEMPERATURE IN CELSIUS
  WCI - WIND CHILL INDEX
   HX - HEAT INDEX
  VSB - VISIBILITY




USA.gov is the U.S. government's official web portal to all federal, state and local government web resources and services.